Location: Newark
(52.3500°N, 175.9667°E)
Time: 07:25:21
(UTC+00:00)

S-56A Canister/Altair - Pass Details

Date: 20 April 2021
Orbit: 631 x 2501 km, 38.9° (Epoch: 12 May)

Event Time Altitude Azimuth Distance (km) Brightness Sun altitude
Rises 11:43:21 0° 225° (SW) 4,424 - -25.6°
Reaches altitude 10° 11:47:42 10° 209° (SSW) 3,075 - -25.7°
Maximum altitude 11:52:19 18° 169° (S) 2,160 - -25.8°
Drops below altitude 10° 11:56:04 10° 127° (SE) 2,415 - -25.8°
Sets 11:58:57 0° 108° (ESE) 3,160 - -25.9°
